Regional Weather Roundup
Issued by NWS

Home | Current Version | Previous Version | Graphics & Text | Print | Product List | Glossary On
Versions: 1 2 3 4 5 6 7 8 9 10 11 12 13 14 15 16 17 18 19 20 21 22 23 24 25 26 27 28 29 30 31 32 33 34 35 36 37 38 39 40 41 42 43 44 45 46 47 48 49 50
000
ASUS43 KLMK 031302
RWRKY
KENTUCKY REGIONAL WEATHER ROUNDUP
NATIONAL WEATHER SERVICE LOUISVILLE KY
900 AM EDT TUE MAY 03 2016

NOTE "FAIR" INDICATES FEW OR NO CLOUDS BELOW 12,000 FEET
WITH NO SIGNIFICANT WEATHER AND/OR OBSTRUCTIONS TO VISIBILITY.

KYZ001>023-026-027-061>063-070>075-031400-
WESTERN AND SOUTH CENTRAL KENTUCKY

CITY           SKY/WX    TMP DP  RH WIND       PRES   REMARKS
PADUCAH        CLOUDY    55  50  83 NW5       30.00S
HENDERSON      FAIR      55  46  71 NW9       29.98R
OWENSBORO      CLOUDY    55  53  93 NW8       29.98R
HOPKINSVILLE   NOT AVBL
BOWLING GREEN  FAIR      56  51  84 NW7       29.97R
GLASGOW        NOT AVBL
$$

KYZ024-025-028>034-038-045-046-053-031400-
NORTH CENTRAL KENTUCKY

CITY           SKY/WX    TMP DP  RH WIND       PRES   REMARKS
LOUISVILLE/SDF PTSUNNY   56  47  71 NW8       29.94S
LOUISVILLE/LOU CLOUDY    56  47  71 W8        29.95R
FORT KNOX      NOT AVBL
$$

KYZ035>037-039>044-047>052-055>060-089>105-031400-
NORTHEAST KENTUCKY

CITY           SKY/WX    TMP DP  RH WIND       PRES   REMARKS
LEXINGTON      CLOUDY    56  51  84 W7        29.92S
COVINGTON      CLOUDY    54  51  90 NW5       29.91R
FRANKFORT      CLOUDY    55  49  80 W8        29.92R
$$

KYZ054-064>069-076>088-106>120-031400-
SOUTHEAST KENTUCKY

CITY           SKY/WX    TMP DP  RH WIND       PRES   REMARKS
JACKSON        CLOUDY    55  53  93 VRB5      29.90S FOG
LONDON         CLOUDY    56  54  93 W6        29.92S
SOMERSET       NOT AVBL
MIDDLESBORO    NOT AVBL
MONTICELLO     CLOUDY    56  53  90 NW8       29.96R
$$





USA.gov is the U.S. government's official web portal to all federal, state and local government web resources and services.